CZ-6A DEB, 61333

Orbit data source: Space-Track

CZ-6A DEB, 61333 is space debris in LEO originally from a launch on Tue, 06 Aug 2024 UTC launched from the Taiyaun Space Center, China (TSC). Debris objects in space refer to the collection of defunct objects orbiting the Earth. Examples of debris include non-operational satellites, rocket bodies, and fragments generated from explosions, collisions, or faulty payload assembly.

Loading next visibility...
Identifier
61333, 2024-140UW
Orbit
LEO
Country
Flag of CNCN / PRC
Related business
Manufacturer
SAST
Mission
Spacecraft
Bus & Motor
Unknown
Mass
Unknown
Launch date (UTC)
2024-08-06 (2 years ago)
Launch vehicle
Unknown
Launch site
Taiyaun Space Center, China (TSC)
Object type
Payload
Rocket body
Debris
Shape & HBR
Unknown shape, 0.1 m
Radar Cross Section
Small (<0.1 m²)

Expand to show TLE details & history
Last TLE update: 15 hours ago

TLE from 15 hours ago
0 CZ-6A DEB
1 61333U 24140UW  26171.28286422  .00000482  00000-0  22278-3 0  9996
2 61333  89.0130 275.4730 0051323 178.3185 181.8187 14.18683699 92857
Epoch: 2026-06-20T06:47Z
TLE epoch observation values (Epoch: 2026-06-20T06:47:19.468Z)
Latitude
-0.00001°
Longitude
-94.85783°
Altitude
869.842 km
Speed
7.398 km/s
True Right ascension
18h 21m 53s
True Declination
0° 00' 00"
Sunlit
Object was in full shadow at epoch
Visualization orbit readout
Latitude
Unknown
Longitude
Unknown
Altitude
Unknown
Speed
Unknown
Apparent Right ascension
Unknown
Apparent Declination
Unknown
Sunlit
N/A
Visualization observer readout
Local Sidereal Time
08:33:06
Azimuth
Unknown
Elevation
Unknown
Doppler factor
Unknown
Orbital elements
Apogee altitude
863.738 km
Perigee altitude
789.783 km
Semi-major axis
7,204.898 km
Eccentricity
0.00513
Inclination
89.013°
RAAN
275.473°
Arg. of periapsis
178.3185°
True anomaly
181.80015°
Mean anomaly
181.8187°
Eccentric anomaly
181.80942°
Mean motion
3.54896 °/min
Orbital period
101.44 mins
BSTAR
0.00022278
Loading maneuver chart data...
Computing Atmospheric mass density...
Loading historical data...
Loading historical data...
Loading historical data...
Loading historical data...
Loading historical data...
Loading historical data...
Loading historical data...

Documentation

Showing up to 5 results
|